Location: Nairn
(57.5833°N, 3.8667°W)
Time: 04:04:50
(UTC+00:00)

Altair - Pass Details

Date: 02 December 2020
Orbit: 1501 x 1682 km, 47.2° (Epoch: 17 January)

Event Time Altitude Azimuth Distance (km) Brightness Sun altitude
Rises 21:00:18 0° 234° (SW) 4,718 10.3 -41.4°
Reaches altitude 10° 21:03:37 10° 227° (SW) 3,713 9.6 -41.8°
Enters shadow 21:06:25 21° 217° (SW) 2,946 9.0 -42.1°
